Location: Newark
(42.1667°N, 14.5667°E)
Time: 18:47:57
(UTC+00:00)

Envisat - Pass Details

Date: 25 January 2020
Orbit: 764 x 766 km, 98.1° (Epoch: 17 February)

Event Time Altitude Azimuth Distance (km) Brightness Sun altitude
Rises 17:26:27 0° 186° (S) 3,218 6.5 -14.8°
Reaches altitude 10° 17:28:52 10° 193° (SSW) 2,296 5.8 -15.3°
Maximum altitude 17:33:36 39° 262° (W) 1,132 4.5 -16.1°
Drops below altitude 10° 17:38:22 10° 332° (NNW) 2,311 5.7 -17.0°
Sets 17:40:50 0° 340° (NNW) 3,242 6.4 -17.5°
